Time,TemperatureF,DewpointF,PressureIn,WindDirection,WindDirectionDegrees,WindSpeedMPH,WindSpeedGustMPH,Humidity,HourlyPrecipIn,Conditions,Clouds,dailyrainin,SolarRadiationWatts/m^2,SoftwareType,DateUTC
2013-03-05 00:00:00,43.8,40.2,29.96,NE,45,0.0,1.0,87,0.00,,,-99.99,0,WeatherLink 5.7,2013-03-05 08:00:00,
2013-03-05 00:06:00,43.6,40.0,29.98,WNW,300,0.0,0.0,87,0.00,,,0.00,,Wunderground v.1.13,2013-03-05 08:06:00,
2013-03-05 00:11:00,43.6,40.0,29.98,WNW,300,0.0,0.0,87,0.00,,,0.00,,Wunderground v.1.13,2013-03-05 08:11:00,
2013-03-05 00:15:00,43.2,39.3,29.96,North,-999,0.0,0.0,86,0.00,,,-99.99,0,WeatherLink 5.7,2013-03-05 08:15:00,
2013-03-05 00:21:00,43.8,40.2,29.97,WNW,300,0.0,0.0,87,0.00,,,0.00,,Wunderground v.1.13,2013-03-05 08:21:00,
2013-03-05 00:30:00,42.5,38.9,29.97,NE,45,0.0,1.0,87,0.00,,,-99.99,0,WeatherLink 5.7,2013-03-05 08:30:00,
2013-03-05 00:31:00,43.8,39.9,29.97,WNW,300,0.0,0.0,86,0.00,,,0.00,,Wunderground v.1.13,2013-03-05 08:31:00,
2013-03-05 00:41:00,43.6,40.0,29.97,WNW,300,0.0,0.0,87,0.00,,,0.00,,Wunderground v.1.13,2013-03-05 08:41:00,
2013-03-05 00:45:00,41.9,38.6,29.97,NE,45,0.0,1.0,88,0.00,,,-99.99,0,WeatherLink 5.7,2013-03-05 08:45:00,
2013-03-05 00:51:00,43.8,40.2,29.97,NE,52,0.0,0.0,87,0.00,,,0.00,,Wunderground v.1.13,2013-03-05 08:51:00,
2013-03-05 01:00:00,41.9,38.9,29.97,North,-999,0.0,0.0,89,0.00,,,-99.99,0,WeatherLink 5.7,2013-03-05 09:00:00,
2013-03-05 01:01:00,43.8,40.2,29.96,NE,52,0.0,0.0,87,0.00,,,0.00,,Wunderground v.1.13,2013-03-05 09:01:00,
2013-03-05 01:07:00,43.6,39.7,29.96,NE,52,0.0,0.0,86,0.00,,,0.00,,Wunderground v.1.13,2013-03-05 09:07:00,
2013-03-05 01:15:00,42.3,39.6,29.97,NNE,22,0.0,3.0,90,0.00,,,-99.99,0,WeatherLink 5.7,2013-03-05 09:15:00,
2013-03-05 01:16:00,43.1,39.2,29.96,NE,52,0.0,0.0,86,0.00,,,0.00,,Wunderground v.1.13,2013-03-05 09:16:00,
2013-03-05 01:26:00,42.6,38.7,29.96,NE,52,0.0,0.0,86,0.00,,,0.00,,Wunderground v.1.13,2013-03-05 09:26:00,
2013-03-05 01:30:00,41.5,38.5,29.97,NNE,22,0.0,1.0,89,0.00,,,-99.99,0,WeatherLink 5.7,2013-03-05 09:30:00,
2013-03-05 01:36:00,42.3,38.7,29.97,NE,52,0.0,0.0,87,0.00,,,0.00,,Wunderground v.1.13,2013-03-05 09:36:00,
2013-03-05 01:41:00,42.1,38.5,29.97,NE,52,0.0,0.0,87,0.00,,,0.00,,Wunderground v.1.13,2013-03-05 09:41:00,
2013-03-05 01:45:00,40.6,37.3,29.97,North,-999,0.0,0.0,88,0.00,,,-99.99,0,WeatherLink 5.7,2013-03-05 09:45:00,
2013-03-05 01:46:00,41.9,38.6,29.97,NE,52,0.0,0.0,88,0.00,,,0.00,,Wunderground v.1.13,2013-03-05 09:46:00,
2013-03-05 01:51:00,41.8,38.5,29.97,NE,52,0.0,0.0,88,0.00,,,0.00,,Wunderground v.1.13,2013-03-05 09:51:00,
2013-03-05 02:00:00,40.1,36.8,29.96,North,-999,0.0,0.0,88,0.00,,,-99.99,0,WeatherLink 5.7,2013-03-05 10:00:00,
2013-03-05 02:01:00,41.9,39.2,29.97,NNE,15,0.0,2.0,90,0.00,,,0.00,,Wunderground v.1.13,2013-03-05 10:01:00,
2013-03-05 02:06:00,42.2,39.8,29.97,NNE,15,0.0,0.0,91,0.00,,,0.00,,Wunderground v.1.13,2013-03-05 10:06:00,
2013-03-05 02:15:00,39.5,36.5,29.96,North,-999,0.0,0.0,89,0.00,,,-99.99,0,WeatherLink 5.7,2013-03-05 10:15:00,
2013-03-05 02:16:00,42.3,39.6,29.97,NNE,15,0.0,0.0,90,0.00,,,0.00,,Wunderground v.1.13,2013-03-05 10:16:00,
2013-03-05 02:26:00,41.8,38.8,29.97,NNE,15,0.0,0.0,89,0.00,,,0.00,,Wunderground v.1.13,2013-03-05 10:26:00,
2013-03-05 02:30:00,39.1,36.4,29.96,NNE,22,0.0,1.0,90,0.00,,,-99.99,0,WeatherLink 5.7,2013-03-05 10:30:00,
2013-03-05 02:36:00,41.2,38.2,29.97,NNE,15,0.0,0.0,89,0.00,,,0.00,,Wunderground v.1.13,2013-03-05 10:36:00,
2013-03-05 02:45:00,38.6,35.9,29.96,North,-999,0.0,0.0,90,0.00,,,-99.99,0,WeatherLink 5.7,2013-03-05 10:45:00,
2013-03-05 02:46:00,40.6,37.6,29.97,NNE,15,0.0,0.0,89,0.00,,,0.00,,Wunderground v.1.13,2013-03-05 10:46:00,
2013-03-05 02:51:00,40.3,37.3,29.97,NNE,15,0.0,0.0,89,0.00,,,0.00,,Wunderground v.1.13,2013-03-05 10:51:00,
2013-03-05 03:00:00,38.2,35.5,29.96,North,-999,0.0,0.0,90,0.00,,,-99.99,0,WeatherLink 5.7,2013-03-05 11:00:00,
2013-03-05 03:01:00,39.9,36.9,29.96,NNE,15,0.0,0.0,89,0.00,,,0.00,,Wunderground v.1.13,2013-03-05 11:01:00,
2013-03-05 03:11:00,39.6,36.6,29.96,NNE,15,0.0,0.0,89,0.00,,,0.00,,Wunderground v.1.13,2013-03-05 11:11:00,
2013-03-05 03:15:00,37.9,35.5,29.97,North,-999,0.0,0.0,91,0.00,,,-99.99,0,WeatherLink 5.7,2013-03-05 11:15:00,
2013-03-05 03:16:00,39.5,36.5,29.96,NNE,15,0.0,0.0,89,0.00,,,0.00,,Wunderground v.1.13,2013-03-05 11:16:00,
2013-03-05 03:26:00,39.2,36.5,29.96,NNE,15,0.0,0.0,90,0.00,,,0.00,,Wunderground v.1.13,2013-03-05 11:26:00,
2013-03-05 03:30:00,37.5,35.1,29.97,North,-999,0.0,0.0,91,0.00,,,-99.99,0,WeatherLink 5.7,2013-03-05 11:30:00,
2013-03-05 03:31:00,39.1,36.4,29.96,NNE,15,0.0,0.0,90,0.00,,,0.00,,Wunderground v.1.13,2013-03-05 11:31:00,
2013-03-05 03:41:00,38.8,36.1,29.96,NNE,15,0.0,0.0,90,0.00,,,0.00,,Wunderground v.1.13,2013-03-05 11:41:00,
2013-03-05 03:45:00,37.8,35.7,29.97,North,-999,0.0,0.0,92,0.00,,,-99.99,0,WeatherLink 5.7,2013-03-05 11:45:00,
2013-03-05 03:51:00,38.5,35.8,29.96,NNE,15,0.0,0.0,90,0.00,,,0.00,,Wunderground v.1.13,2013-03-05 11:51:00,
2013-03-05 04:00:00,37.6,35.5,29.97,North,-999,0.0,0.0,92,0.00,,,-99.99,0,WeatherLink 5.7,2013-03-05 12:00:00,
2013-03-05 04:01:00,38.0,35.3,29.96,NNE,15,0.0,0.0,90,0.00,,,0.00,,Wunderground v.1.13,2013-03-05 12:01:00,
2013-03-05 04:06:00,38.0,35.6,29.96,NNE,15,0.0,0.0,91,0.00,,,0.00,,Wunderground v.1.13,2013-03-05 12:06:00,
2013-03-05 04:11:00,37.9,35.5,29.96,NNE,15,0.0,0.0,91,0.00,,,0.00,,Wunderground v.1.13,2013-03-05 12:11:00,
2013-03-05 04:15:00,37.5,35.4,29.97,North,-999,0.0,0.0,92,0.00,,,-99.99,0,WeatherLink 5.7,2013-03-05 12:15:00,
2013-03-05 04:21:00,37.8,35.4,29.97,NNE,15,0.0,0.0,91,0.00,,,0.00,,Wunderground v.1.13,2013-03-05 12:21:00,
2013-03-05 04:26:00,37.6,35.2,29.97,NNE,15,0.0,0.0,91,0.00,,,0.00,,Wunderground v.1.13,2013-03-05 12:26:00,
2013-03-05 04:30:00,37.6,35.8,29.97,North,-999,0.0,0.0,93,0.00,,,-99.99,0,WeatherLink 5.7,2013-03-05 12:30:00,
2013-03-05 04:31:00,37.5,35.1,29.97,NNE,15,0.0,0.0,91,0.00,,,0.00,,Wunderground v.1.13,2013-03-05 12:31:00,
2013-03-05 04:41:00,37.8,35.7,29.97,NNE,15,0.0,0.0,92,0.00,,,0.00,,Wunderground v.1.13,2013-03-05 12:41:00,
2013-03-05 04:45:00,37.9,36.1,29.98,North,-999,0.0,0.0,93,0.00,,,-99.99,0,WeatherLink 5.7,2013-03-05 12:45:00,
2013-03-05 04:46:00,37.8,35.7,29.97,NNE,15,0.0,0.0,92,0.00,,,0.00,,Wunderground v.1.13,2013-03-05 12:46:00,
2013-03-05 04:56:00,37.8,35.7,29.97,NNE,15,0.0,0.0,92,0.00,,,0.00,,Wunderground v.1.13,2013-03-05 12:56:00,
2013-03-05 05:00:00,37.9,36.1,29.97,North,-999,0.0,0.0,93,0.00,,,-99.99,0,WeatherLink 5.7,2013-03-05 13:00:00,
2013-03-05 05:06:00,37.6,35.5,29.97,NNE,15,0.0,0.0,92,0.00,,,0.00,,Wunderground v.1.13,2013-03-05 13:06:00,
2013-03-05 05:11:00,37.6,35.5,29.97,NNE,15,0.0,0.0,92,0.00,,,0.00,,Wunderground v.1.13,2013-03-05 13:11:00,
2013-03-05 05:15:00,38.0,36.2,29.97,North,-999,0.0,0.0,93,0.00,,,-99.99,0,WeatherLink 5.7,2013-03-05 13:15:00,
2013-03-05 05:16:00,37.5,35.4,29.97,NNE,15,0.0,0.0,92,0.00,,,0.00,,Wunderground v.1.13,2013-03-05 13:16:00,
2013-03-05 05:26:00,37.6,35.8,29.97,NNE,15,0.0,0.0,93,0.00,,,0.00,,Wunderground v.1.13,2013-03-05 13:26:00,
2013-03-05 05:30:00,37.9,36.1,29.97,NNE,22,0.0,1.0,93,0.00,,,-99.99,0,WeatherLink 5.7,2013-03-05 13:30:00,
2013-03-05 05:31:00,37.6,35.8,29.97,NNE,15,0.0,0.0,93,0.00,,,0.00,,Wunderground v.1.13,2013-03-05 13:31:00,
2013-03-05 05:36:00,37.8,36.0,29.97,NNE,15,0.0,0.0,93,0.00,,,0.00,,Wunderground v.1.13,2013-03-05 13:36:00,
2013-03-05 05:41:00,37.9,36.1,29.97,NNE,15,0.0,0.0,93,0.00,,,0.00,,Wunderground v.1.13,2013-03-05 13:41:00,
2013-03-05 05:45:00,37.9,36.1,29.97,North,-999,0.0,0.0,93,0.00,,,-99.99,1,WeatherLink 5.7,2013-03-05 13:45:00,
2013-03-05 05:51:00,37.9,36.1,29.98,NNE,15,0.0,0.0,93,0.00,,,0.00,,Wunderground v.1.13,2013-03-05 13:51:00,
2013-03-05 05:56:00,37.9,36.1,29.98,NNE,15,0.0,0.0,93,0.00,,,0.00,,Wunderground v.1.13,2013-03-05 13:56:00,
2013-03-05 06:00:00,37.9,36.3,29.98,North,-999,0.0,0.0,94,0.00,,,-99.99,9,WeatherLink 5.7,2013-03-05 14:00:00,
2013-03-05 06:01:00,38.0,36.2,29.97,NNE,15,0.0,0.0,93,0.00,,,0.00,,Wunderground v.1.13,2013-03-05 14:01:00,
2013-03-05 06:11:00,38.0,36.2,29.97,NNE,15,0.0,0.0,93,0.00,,,0.00,,Wunderground v.1.13,2013-03-05 14:11:00,
2013-03-05 06:15:00,38.0,36.4,29.97,North,-999,0.0,0.0,94,0.00,,,-99.99,15,WeatherLink 5.7,2013-03-05 14:15:00,
2013-03-05 06:21:00,37.9,36.1,29.97,NNE,15,0.0,0.0,93,0.00,,,0.00,,Wunderground v.1.13,2013-03-05 14:21:00,
2013-03-05 06:30:00,38.9,37.6,29.97,North,-999,0.0,0.0,95,0.00,,,-99.99,22,WeatherLink 5.7,2013-03-05 14:30:00,
2013-03-05 06:31:00,37.9,36.1,29.97,NNE,15,0.0,0.0,93,0.00,,,0.00,,Wunderground v.1.13,2013-03-05 14:31:00,
2013-03-05 06:36:00,37.9,36.1,29.97,NNE,15,0.0,0.0,93,0.00,,,0.00,,Wunderground v.1.13,2013-03-05 14:36:00,
2013-03-05 06:41:00,37.9,36.1,29.97,NNE,15,0.0,0.0,93,0.00,,,0.00,,Wunderground v.1.13,2013-03-05 14:41:00,
2013-03-05 06:45:00,40.1,38.8,29.96,North,-999,0.0,0.0,95,0.00,,,-99.99,28,WeatherLink 5.7,2013-03-05 14:45:00,
2013-03-05 06:51:00,37.9,36.3,29.97,NNE,15,0.0,0.0,94,0.00,,,0.00,,Wunderground v.1.13,2013-03-05 14:51:00,
2013-03-05 07:00:00,41.8,40.7,29.96,WNW,292,0.0,3.0,96,0.00,,,-99.99,35,WeatherLink 5.7,2013-03-05 15:00:00,
2013-03-05 07:01:00,37.9,36.3,29.98,NNE,15,0.0,0.0,94,0.00,,,0.00,,Wunderground v.1.13,2013-03-05 15:01:00,
2013-03-05 07:06:00,37.9,36.3,29.98,NNE,15,0.0,0.0,94,0.00,,,0.00,,Wunderground v.1.13,2013-03-05 15:06:00,
2013-03-05 07:15:00,43.8,42.7,29.96,NE,45,0.0,2.0,96,0.00,,,-99.99,59,WeatherLink 5.7,2013-03-05 15:15:00,
2013-03-05 07:16:00,38.0,36.4,29.97,NNE,15,0.0,0.0,94,0.00,,,0.00,,Wunderground v.1.13,2013-03-05 15:16:00,
2013-03-05 07:26:00,38.5,36.9,29.97,NNE,15,0.0,0.0,94,0.00,,,0.00,,Wunderground v.1.13,2013-03-05 15:26:00,
2013-03-05 07:30:00,45.5,42.7,29.96,NE,45,1.0,6.0,90,0.00,,,-99.99,67,WeatherLink 5.7,2013-03-05 15:30:00,
2013-03-05 07:36:00,39.5,38.2,29.97,NNE,15,0.0,0.0,95,0.00,,,0.00,,Wunderground v.1.13,2013-03-05 15:36:00,
2013-03-05 07:41:00,39.8,38.5,29.97,NNE,15,0.0,0.0,95,0.00,,,0.00,,Wunderground v.1.13,2013-03-05 15:41:00,
2013-03-05 07:45:00,47.1,42.2,29.95,East,90,0.0,4.0,83,0.00,,,-99.99,65,WeatherLink 5.7,2013-03-05 15:45:00,
2013-03-05 07:46:00,40.1,38.8,29.96,NNE,15,0.0,0.0,95,0.00,,,0.00,,Wunderground v.1.13,2013-03-05 15:46:00,
2013-03-05 07:56:00,41.2,40.1,29.96,WNW,302,0.0,0.0,96,0.00,,,0.00,,Wunderground v.1.13,2013-03-05 15:56:00,
2013-03-05 08:00:00,47.9,41.7,29.95,ENE,67,0.0,4.0,79,0.00,,,-99.99,64,WeatherLink 5.7,2013-03-05 16:00:00,
2013-03-05 08:06:00,42.5,41.4,29.96,NNW,341,0.0,1.0,96,0.00,,,0.00,,Wunderground v.1.13,2013-03-05 16:06:00,
2013-03-05 08:11:00,43.2,42.1,29.96,NE,50,0.0,0.0,96,0.00,,,0.00,,Wunderground v.1.13,2013-03-05 16:11:00,
2013-03-05 08:15:00,48.8,41.6,29.95,NW,315,1.0,4.0,76,0.00,,,-99.99,73,WeatherLink 5.7,2013-03-05 16:15:00,
2013-03-05 08:21:00,44.5,43.2,29.96,NE,51,0.0,0.0,95,0.00,,,0.00,,Wunderground v.1.13,2013-03-05 16:21:00,
2013-03-05 08:30:00,49.8,41.5,29.95,ENE,67,1.0,4.0,73,0.00,,,-99.99,91,WeatherLink 5.7,2013-03-05 16:30:00,
2013-03-05 08:31:00,45.5,42.4,29.96,NNE,13,1.0,1.0,89,0.00,,,0.00,,Wunderground v.1.13,2013-03-05 16:31:00,
2013-03-05 08:36:00,46.2,42.5,29.96,East,94,0.0,1.0,87,0.00,,,0.00,,Wunderground v.1.13,2013-03-05 16:36:00,
2013-03-05 08:45:00,50.5,41.1,29.94,ENE,67,1.0,4.0,70,0.00,,,-99.99,89,WeatherLink 5.7,2013-03-05 16:45:00,
2013-03-05 08:46:00,47.1,41.9,29.95,NE,45,0.0,0.0,82,0.00,,,0.00,,Wunderground v.1.13,2013-03-05 16:46:00,
2013-03-05 08:56:00,47.7,41.8,29.95,NW,322,0.0,0.0,80,0.00,,,0.00,,Wunderground v.1.13,2013-03-05 16:56:00,
2013-03-05 09:00:00,51.3,41.5,29.94,NW,315,1.0,4.0,69,0.00,,,-99.99,113,WeatherLink 5.7,2013-03-05 17:00:00,
2013-03-05 09:06:00,48.2,41.3,29.95,NE,44,1.0,1.0,77,0.00,,,0.00,,Wunderground v.1.13,2013-03-05 17:06:00,
2013-03-05 09:15:00,51.6,41.4,29.94,NW,315,1.0,5.0,68,0.00,,,-99.99,105,WeatherLink 5.7,2013-03-05 17:15:00,
2013-03-05 09:16:00,48.8,41.6,29.95,North,355,0.0,0.0,76,0.00,,,0.00,,Wunderground v.1.13,2013-03-05 17:16:00,
2013-03-05 09:26:00,49.5,41.2,29.95,ENE,57,1.0,2.0,73,0.00,,,0.00,,Wunderground v.1.13,2013-03-05 17:26:00,
2013-03-05 09:30:00,52.3,40.9,29.93,NW,315,1.0,10.0,65,0.00,,,-99.99,79,WeatherLink 5.7,2013-03-05 17:30:00,
2013-03-05 09:31:00,49.9,41.2,29.95,ENE,58,1.0,1.0,72,0.00,,,0.00,,Wunderground v.1.13,2013-03-05 17:31:00,
2013-03-05 09:36:00,50.1,41.1,29.95,WNW,297,0.0,0.0,71,0.00,,,0.00,,Wunderground v.1.13,2013-03-05 17:36:00,
2013-03-05 09:41:00,50.4,41.3,29.95,NNW,327,1.0,2.0,71,0.00,,,0.00,,Wunderground v.1.13,2013-03-05 17:41:00,
2013-03-05 09:45:00,53.3,41.4,29.93,NNW,337,0.0,5.0,64,0.00,,,-99.99,137,WeatherLink 5.7,2013-03-05 17:45:00,
2013-03-05 09:46:00,50.5,41.1,29.94,NE,44,1.0,1.0,70,0.00,,,0.00,,Wunderground v.1.13,2013-03-05 17:46:00,
2013-03-05 09:56:00,51.0,41.2,29.94,NW,321,0.0,2.0,69,0.00,,,0.00,,Wunderground v.1.13,2013-03-05 17:56:00,
2013-03-05 10:00:00,54.5,40.9,29.93,ENE,67,1.0,5.0,60,0.00,,,-99.99,274,WeatherLink 5.7,2013-03-05 18:00:00,
2013-03-05 10:06:00,51.7,41.9,29.94,SE,131,2.0,2.0,69,0.00,,,0.00,,Wunderground v.1.13,2013-03-05 18:06:00,
2013-03-05 10:11:00,51.7,41.1,29.94,NW,315,2.0,2.0,67,0.00,,,0.00,,Wunderground v.1.13,2013-03-05 18:11:00,
2013-03-05 10:15:00,55.6,41.0,29.92,ENE,67,1.0,4.0,58,0.00,,,-99.99,423,WeatherLink 5.7,2013-03-05 18:15:00,
2013-03-05 10:16:00,51.6,41.4,29.94,ENE,70,1.0,1.0,68,0.00,,,0.00,,Wunderground v.1.13,2013-03-05 18:16:00,
2013-03-05 10:26:00,52.0,41.0,29.94,NW,308,1.0,5.0,66,0.00,,,0.00,,Wunderground v.1.13,2013-03-05 18:26:00,
2013-03-05 10:30:00,56.2,40.7,29.92,East,90,1.0,5.0,56,0.00,,,-99.99,376,WeatherLink 5.7,2013-03-05 18:30:00,
2013-03-05 10:36:00,52.8,41.4,29.93,North,355,1.0,1.0,65,0.00,,,0.00,,Wunderground v.1.13,2013-03-05 18:36:00,
2013-03-05 10:45:00,56.3,40.8,29.92,East,90,1.0,4.0,56,0.00,,,-99.99,535,WeatherLink 5.7,2013-03-05 18:45:00,
2013-03-05 10:46:00,53.5,41.2,29.93,ENE,74,0.0,2.0,63,0.00,,,0.00,,Wunderground v.1.13,2013-03-05 18:46:00,
2013-03-05 10:51:00,53.9,40.8,29.93,ENE,74,0.0,0.0,61,0.00,,,0.00,,Wunderground v.1.13,2013-03-05 18:51:00,
2013-03-05 10:56:00,54.2,41.5,29.93,NE,49,0.0,0.0,62,0.00,,,0.00,,Wunderground v.1.13,2013-03-05 18:56:00,
2013-03-05 11:00:00,56.6,40.1,29.92,East,90,1.0,7.0,54,0.00,,,-99.99,299,WeatherLink 5.7,2013-03-05 19:00:00,
2013-03-05 11:01:00,54.7,41.5,29.93,NNW,342,1.0,1.0,61,0.00,,,0.00,,Wunderground v.1.13,2013-03-05 19:01:00,
2013-03-05 11:11:00,55.3,40.8,29.93,ENE,69,1.0,1.0,58,0.00,,,0.00,,Wunderground v.1.13,2013-03-05 19:11:00,
2013-03-05 11:15:00,57.0,40.5,29.92,East,90,1.0,5.0,54,0.00,,,-99.99,424,WeatherLink 5.7,2013-03-05 19:15:00,
2013-03-05 11:16:00,55.7,40.7,29.92,NNW,328,1.0,1.0,57,0.00,,,0.00,,Wunderground v.1.13,2013-03-05 19:16:00,
2013-03-05 11:26:00,55.9,40.4,29.92,NW,318,1.0,1.0,56,0.00,,,0.00,,Wunderground v.1.13,2013-03-05 19:26:00,
2013-03-05 11:30:00,57.2,41.6,29.91,ESE,112,1.0,7.0,56,0.00,,,-99.99,322,WeatherLink 5.7,2013-03-05 19:30:00,
2013-03-05 11:36:00,56.5,40.5,29.92,East,93,1.0,2.0,55,0.00,,,0.00,,Wunderground v.1.13,2013-03-05 19:36:00,
2013-03-05 11:41:00,56.2,40.2,29.92,East,90,1.0,1.0,55,0.00,,,0.00,,Wunderground v.1.13,2013-03-05 19:41:00,
2013-03-05 11:45:00,56.6,40.6,29.90,ENE,67,1.0,7.0,55,0.00,,,-99.99,259,WeatherLink 5.7,2013-03-05 19:45:00,
2013-03-05 11:46:00,56.3,40.3,29.92,East,82,1.0,1.0,55,0.00,,,0.00,,Wunderground v.1.13,2013-03-05 19:46:00,
2013-03-05 11:51:00,56.9,40.4,29.92,WNW,284,1.0,1.0,54,0.00,,,0.00,,Wunderground v.1.13,2013-03-05 19:51:00,
2013-03-05 12:00:00,56.2,41.2,29.90,NW,315,2.0,14.0,57,0.00,,,-99.99,376,WeatherLink 5.7,2013-03-05 20:00:00,
2013-03-05 12:01:00,56.6,40.1,29.92,North,351,1.0,1.0,54,0.00,,,0.00,,Wunderground v.1.13,2013-03-05 20:01:00,
2013-03-05 12:06:00,56.6,40.6,29.92,East,98,1.0,1.0,55,0.00,,,0.00,,Wunderground v.1.13,2013-03-05 20:06:00,
2013-03-05 12:11:00,56.9,40.4,29.92,East,94,1.0,1.0,54,0.00,,,0.00,,Wunderground v.1.13,2013-03-05 20:11:00,
2013-03-05 12:15:00,57.6,42.0,29.89,NNW,337,1.0,4.0,56,0.00,,,-99.99,515,WeatherLink 5.7,2013-03-05 20:15:00,
2013-03-05 12:21:00,57.2,40.7,29.91,ESE,109,1.0,1.0,54,0.00,,,0.00,,Wunderground v.1.13,2013-03-05 20:21:00,
2013-03-05 12:26:00,57.2,41.2,29.91,NW,317,1.0,3.0,55,0.00,,,0.00,,Wunderground v.1.13,2013-03-05 20:26:00,
2013-03-05 12:30:00,57.2,41.6,29.88,NW,315,2.0,10.0,56,0.00,,,-99.99,481,WeatherLink 5.7,2013-03-05 20:30:00,
2013-03-05 12:36:00,57.0,40.5,29.91,East,82,2.0,2.0,54,0.00,,,0.00,,Wunderground v.1.13,2013-03-05 20:36:00,
2013-03-05 12:45:00,57.2,41.6,29.87,NW,315,2.0,9.0,56,0.00,,,-99.99,384,WeatherLink 5.7,2013-03-05 20:45:00,
2013-03-05 12:46:00,56.6,40.6,29.90,NNW,340,1.0,4.0,55,0.00,,,0.00,,Wunderground v.1.13,2013-03-05 20:46:00,
2013-03-05 12:51:00,56.2,41.6,29.90,East,83,2.0,2.0,58,0.00,,,0.00,,Wunderground v.1.13,2013-03-05 20:51:00,
2013-03-05 13:00:00,57.5,41.4,29.87,NW,315,2.0,11.0,55,0.00,,,-99.99,396,WeatherLink 5.7,2013-03-05 21:00:00,
2013-03-05 13:01:00,56.2,41.2,29.90,NW,324,2.0,2.0,57,0.00,,,0.00,,Wunderground v.1.13,2013-03-05 21:01:00,
2013-03-05 13:11:00,57.2,43.0,29.90,ENE,65,1.0,3.0,59,0.00,,,0.00,,Wunderground v.1.13,2013-03-05 21:11:00,
2013-03-05 13:15:00,56.9,40.9,29.87,WNW,292,3.0,12.0,55,0.00,,,-99.99,401,WeatherLink 5.7,2013-03-05 21:15:00,
2013-03-05 13:21:00,57.3,42.2,29.89,East,97,2.0,2.0,57,0.00,,,0.00,,Wunderground v.1.13,2013-03-05 21:21:00,
2013-03-05 13:30:00,57.2,42.1,29.86,NW,315,2.0,10.0,57,0.00,,,-99.99,275,WeatherLink 5.7,2013-03-05 21:30:00,
2013-03-05 13:31:00,57.2,41.6,29.88,NE,34,2.0,2.0,56,0.00,,,0.00,,Wunderground v.1.13,2013-03-05 21:31:00,
2013-03-05 13:36:00,57.0,41.4,29.88,WNW,300,2.0,2.0,56,0.00,,,0.00,,Wunderground v.1.13,2013-03-05 21:36:00,
2013-03-05 13:45:00,57.5,41.4,29.85,ESE,112,1.0,9.0,55,0.00,,,-99.99,183,WeatherLink 5.7,2013-03-05 21:45:00,
2013-03-05 13:46:00,57.2,41.6,29.87,NW,310,2.0,2.0,56,0.00,,,0.00,,Wunderground v.1.13,2013-03-05 21:46:00,
2013-03-05 13:56:00,57.6,42.0,29.87,NW,310,2.0,2.0,56,0.00,,,0.00,,Wunderground v.1.13,2013-03-05 21:56:00,
2013-03-05 14:00:00,57.3,41.3,29.85,ENE,67,1.0,4.0,55,0.00,,,-99.99,96,WeatherLink 5.7,2013-03-05 22:00:00,
2013-03-05 14:06:00,57.0,41.4,29.87,WNW,297,3.0,4.0,56,0.00,,,0.00,,Wunderground v.1.13,2013-03-05 22:06:00,
2013-03-05 14:11:00,57.0,41.4,29.87,East,84,2.0,2.0,56,0.00,,,0.00,,Wunderground v.1.13,2013-03-05 22:11:00,
2013-03-05 14:15:00,56.7,41.2,29.85,ENE,67,1.0,6.0,56,0.00,,,-99.99,163,WeatherLink 5.7,2013-03-05 22:15:00,
2013-03-05 14:21:00,56.7,41.2,29.87,West,271,3.0,3.0,56,0.00,,,0.00,,Wunderground v.1.13,2013-03-05 22:21:00,
2013-03-05 14:26:00,56.9,41.8,29.87,NW,310,2.0,2.0,57,0.00,,,0.00,,Wunderground v.1.13,2013-03-05 22:26:00,
2013-03-05 14:30:00,56.9,40.9,29.85,East,90,1.0,6.0,55,0.00,,,-99.99,86,WeatherLink 5.7,2013-03-05 22:30:00,
2013-03-05 14:36:00,57.6,42.0,29.86,ESE,111,1.0,2.0,56,0.00,,,0.00,,Wunderground v.1.13,2013-03-05 22:36:00,
2013-03-05 14:41:00,57.6,41.5,29.86,ESE,103,1.0,3.0,55,0.00,,,0.00,,Wunderground v.1.13,2013-03-05 22:41:00,
2013-03-05 14:45:00,56.2,41.2,29.85,ESE,112,1.0,3.0,57,0.00,,,-99.99,50,WeatherLink 5.7,2013-03-05 22:45:00,
2013-03-05 14:51:00,57.5,41.4,29.86,ENE,61,1.0,1.0,55,0.00,,,0.00,,Wunderground v.1.13,2013-03-05 22:51:00,
2013-03-05 15:00:00,55.4,40.9,29.84,East,90,1.0,7.0,58,0.00,,,-99.99,100,WeatherLink 5.7,2013-03-05 23:00:00,
2013-03-05 15:01:00,57.2,41.2,29.86,South,183,1.0,2.0,55,0.00,,,0.00,,Wunderground v.1.13,2013-03-05 23:01:00,
2013-03-05 15:11:00,56.7,41.2,29.86,ESE,108,1.0,1.0,56,0.00,,,0.00,,Wunderground v.1.13,2013-03-05 23:11:00,
2013-03-05 15:15:00,55.0,40.5,29.84,East,90,1.0,7.0,58,0.00,,,-99.99,103,WeatherLink 5.7,2013-03-05 23:15:00,
2013-03-05 15:16:00,56.7,41.2,29.86,ENE,63,1.0,1.0,56,0.00,,,0.00,,Wunderground v.1.13,2013-03-05 23:16:00,
2013-03-05 15:26:00,56.9,41.4,29.86,ENE,66,1.0,1.0,56,0.00,,,0.00,,Wunderground v.1.13,2013-03-05 23:26:00,
2013-03-05 15:30:00,55.3,40.8,29.83,East,90,1.0,4.0,58,0.00,,,-99.99,102,WeatherLink 5.7,2013-03-05 23:30:00,
2013-03-05 15:31:00,56.7,40.7,29.86,ESE,122,1.0,2.0,55,0.00,,,0.00,,Wunderground v.1.13,2013-03-05 23:31:00,
2013-03-05 15:36:00,56.5,41.4,29.86,East,85,1.0,2.0,57,0.00,,,0.00,,Wunderground v.1.13,2013-03-05 23:36:00,
2013-03-05 15:41:00,56.3,41.3,29.86,ESE,102,1.0,1.0,57,0.00,,,0.00,,Wunderground v.1.13,2013-03-05 23:41:00,
2013-03-05 15:45:00,55.3,40.3,29.82,East,90,1.0,9.0,57,0.00,,,-99.99,67,WeatherLink 5.7,2013-03-05 23:45:00,
2013-03-05 15:51:00,55.9,40.4,29.85,NW,315,1.0,1.0,56,0.00,,,0.00,,Wunderground v.1.13,2013-03-05 23:51:00,
2013-03-05 16:00:00,55.1,40.1,29.81,ENE,67,0.0,3.0,57,0.00,,,-99.99,66,WeatherLink 5.7,2013-03-06 00:00:00,
2013-03-05 16:01:00,55.3,40.8,29.84,East,88,1.0,1.0,58,0.00,,,0.00,,Wunderground v.1.13,2013-03-06 00:01:00,
2013-03-05 16:06:00,55.1,40.6,29.84,NW,305,1.0,2.0,58,0.00,,,0.00,,Wunderground v.1.13,2013-03-06 00:06:00,
2013-03-05 16:15:00,55.0,40.0,29.81,NNE,22,0.0,3.0,57,0.00,,,-99.99,57,WeatherLink 5.7,2013-03-06 00:15:00,
2013-03-05 16:16:00,55.0,40.5,29.84,WNW,296,2.0,2.0,58,0.00,,,0.00,,Wunderground v.1.13,2013-03-06 00:16:00,
2013-03-05 16:21:00,55.1,40.6,29.84,East,92,1.0,1.0,58,0.00,,,0.00,,Wunderground v.1.13,2013-03-06 00:21:00,
2013-03-05 16:30:00,54.5,40.0,29.80,East,90,0.0,4.0,58,0.00,,,-99.99,49,WeatherLink 5.7,2013-03-06 00:30:00,
2013-03-05 16:31:00,55.3,40.8,29.82,North,350,1.0,1.0,58,0.00,,,0.00,,Wunderground v.1.13,2013-03-06 00:31:00,
2013-03-05 16:41:00,55.3,39.4,29.82,East,87,1.0,1.0,55,0.00,,,0.00,,Wunderground v.1.13,2013-03-06 00:41:00,
2013-03-05 16:45:00,53.9,40.3,29.80,East,90,1.0,4.0,60,0.00,,,-99.99,33,WeatherLink 5.7,2013-03-06 00:45:00,
2013-03-05 16:51:00,55.1,39.7,29.82,ENE,59,1.0,1.0,56,0.00,,,0.00,,Wunderground v.1.13,2013-03-06 00:51:00,
2013-03-05 17:00:00,53.3,40.2,29.80,East,90,1.0,5.0,61,0.00,,,-99.99,9,WeatherLink 5.7,2013-03-06 01:00:00,
2013-03-05 17:01:00,55.1,39.7,29.81,East,87,0.0,0.0,56,0.00,,,0.00,,Wunderground v.1.13,2013-03-06 01:01:00,
2013-03-05 17:06:00,55.1,40.1,29.81,North,5,0.0,2.0,57,0.00,,,0.00,,Wunderground v.1.13,2013-03-06 01:06:00,
2013-03-05 17:11:00,55.1,40.1,29.81,NNE,28,0.0,2.0,57,0.00,,,0.00,,Wunderground v.1.13,2013-03-06 01:11:00,
2013-03-05 17:15:00,52.8,40.1,29.79,East,90,1.0,4.0,62,0.00,,,-99.99,0,WeatherLink 5.7,2013-03-06 01:15:00,
2013-03-05 17:21:00,54.8,40.3,29.81,East,99,1.0,1.0,58,0.00,,,0.00,,Wunderground v.1.13,2013-03-06 01:21:00,
2013-03-05 17:30:00,52.3,40.1,29.80,East,90,0.0,4.0,63,0.00,,,-99.99,0,WeatherLink 5.7,2013-03-06 01:30:00,
2013-03-05 17:31:00,54.5,40.0,29.80,East,99,1.0,1.0,58,0.00,,,0.00,,Wunderground v.1.13,2013-03-06 01:31:00,
2013-03-05 17:36:00,54.2,40.2,29.80,East,98,1.0,1.0,59,0.00,,,0.00,,Wunderground v.1.13,2013-03-06 01:36:00,
2013-03-05 17:45:00,51.9,40.1,29.80,East,90,0.0,2.0,64,0.00,,,-99.99,0,WeatherLink 5.7,2013-03-06 01:45:00,
2013-03-05 17:46:00,53.8,40.2,29.80,East,99,1.0,1.0,60,0.00,,,0.00,,Wunderground v.1.13,2013-03-06 01:46:00,
2013-03-05 17:56:00,53.5,40.4,29.80,East,96,1.0,1.0,61,0.00,,,0.00,,Wunderground v.1.13,2013-03-06 01:56:00,
2013-03-05 18:00:00,51.4,40.0,29.80,NE,45,0.0,2.0,65,0.00,,,-99.99,0,WeatherLink 5.7,2013-03-06 02:00:00,
2013-03-05 18:01:00,53.2,40.1,29.80,ENE,74,1.0,1.0,61,0.00,,,0.00,,Wunderground v.1.13,2013-03-06 02:01:00,
2013-03-05 18:11:00,52.9,40.2,29.80,East,82,1.0,1.0,62,0.00,,,0.00,,Wunderground v.1.13,2013-03-06 02:11:00,
2013-03-05 18:15:00,51.1,40.1,29.80,NE,45,0.0,2.0,66,0.00,,,-99.99,0,WeatherLink 5.7,2013-03-06 02:15:00,
2013-03-05 18:21:00,52.6,40.4,29.79,East,82,1.0,1.0,63,0.00,,,0.00,,Wunderground v.1.13,2013-03-06 02:21:00,
2013-03-05 18:30:00,51.0,39.2,29.80,NNE,22,0.0,4.0,64,0.00,,,-99.99,0,WeatherLink 5.7,2013-03-06 02:30:00,
2013-03-05 18:31:00,52.3,40.5,29.80,East,80,0.0,0.0,64,0.00,,,0.00,,Wunderground v.1.13,2013-03-06 02:31:00,
2013-03-05 18:41:00,52.0,40.2,29.80,East,80,0.0,1.0,64,0.00,,,0.00,,Wunderground v.1.13,2013-03-06 02:41:00,
2013-03-05 18:45:00,51.6,40.2,29.81,East,90,1.0,3.0,65,0.00,,,-99.99,0,WeatherLink 5.7,2013-03-06 02:45:00,
2013-03-05 18:51:00,51.7,40.3,29.80,NE,47,1.0,1.0,65,0.00,,,0.00,,Wunderground v.1.13,2013-03-06 02:51:00,
2013-03-05 18:56:00,51.6,40.2,29.80,NE,48,0.0,0.0,65,0.00,,,0.00,,Wunderground v.1.13,2013-03-06 02:56:00,
2013-03-05 19:00:00,51.6,40.6,29.79,ENE,67,1.0,5.0,66,0.00,,,-99.99,0,WeatherLink 5.7,2013-03-06 03:00:00,
2013-03-05 19:06:00,51.3,39.9,29.80,NE,55,0.0,1.0,65,0.00,,,0.00,,Wunderground v.1.13,2013-03-06 03:06:00,
2013-03-05 19:11:00,51.1,40.1,29.80,NE,55,0.0,0.0,66,0.00,,,0.00,,Wunderground v.1.13,2013-03-06 03:11:00,
2013-03-05 19:15:00,51.3,40.7,29.78,East,90,1.0,3.0,67,0.00,,,-99.99,0,WeatherLink 5.7,2013-03-06 03:15:00,
2013-03-05 19:21:00,51.0,40.0,29.80,NNE,22,0.0,1.0,66,0.00,,,0.00,,Wunderground v.1.13,2013-03-06 03:21:00,
2013-03-05 19:30:00,51.0,40.8,29.78,East,90,1.0,6.0,68,0.00,,,-99.99,0,WeatherLink 5.7,2013-03-06 03:30:00,
2013-03-05 19:31:00,51.1,39.3,29.80,East,80,1.0,1.0,64,0.00,,,0.00,,Wunderground v.1.13,2013-03-06 03:31:00,
2013-03-05 19:36:00,51.3,39.5,29.80,East,98,1.0,1.0,64,0.00,,,0.00,,Wunderground v.1.13,2013-03-06 03:36:00,
2013-03-05 19:45:00,51.0,41.2,29.78,East,90,1.0,5.0,69,0.00,,,-99.99,0,WeatherLink 5.7,2013-03-06 03:45:00,
2013-03-05 19:46:00,51.6,40.2,29.81,ESE,123,1.0,1.0,65,0.00,,,0.00,,Wunderground v.1.13,2013-03-06 03:46:00,
2013-03-05 19:51:00,51.6,40.2,29.81,ENE,76,1.0,3.0,65,0.00,,,0.00,,Wunderground v.1.13,2013-03-06 03:51:00,
2013-03-05 20:00:00,51.0,41.6,29.78,ENE,67,1.0,5.0,70,0.00,,,-99.99,0,WeatherLink 5.7,2013-03-06 04:00:00,
2013-03-05 20:01:00,51.6,40.6,29.79,NE,45,1.0,1.0,66,0.00,,,0.00,,Wunderground v.1.13,2013-03-06 04:01:00,
2013-03-05 20:11:00,51.4,40.8,29.79,SSW,213,1.0,1.0,67,0.00,,,0.00,,Wunderground v.1.13,2013-03-06 04:11:00,
2013-03-05 20:15:00,50.4,42.8,29.77,ENE,67,1.0,3.0,75,0.01,,,-99.99,0,WeatherLink 5.7,2013-03-06 04:15:00,
2013-03-05 20:16:00,51.3,40.7,29.78,SSW,212,1.0,1.0,67,0.00,,,0.00,,Wunderground v.1.13,2013-03-06 04:16:00,
2013-03-05 20:26:00,51.1,40.9,29.78,ENE,70,0.0,0.0,68,0.00,,,0.00,,Wunderground v.1.13,2013-03-06 04:26:00,
2013-03-05 20:30:00,50.1,43.5,29.77,East,90,1.0,9.0,78,0.01,,,-99.99,0,WeatherLink 5.7,2013-03-06 04:30:00,
2013-03-05 20:31:00,51.0,40.8,29.78,East,84,1.0,3.0,68,0.00,,,0.00,,Wunderground v.1.13,2013-03-06 04:31:00,
2013-03-05 20:36:00,51.0,40.8,29.78,East,101,1.0,1.0,68,0.00,,,0.00,,Wunderground v.1.13,2013-03-06 04:36:00,
2013-03-05 20:45:00,49.2,44.3,29.77,ESE,112,1.0,4.0,83,0.03,,,-99.99,0,WeatherLink 5.7,2013-03-06 04:45:00,
2013-03-05 20:46:00,51.0,41.2,29.78,East,84,1.0,2.0,69,0.00,,,0.00,,Wunderground v.1.13,2013-03-06 04:46:00,
2013-03-05 20:51:00,51.0,41.2,29.78,East,85,1.0,1.0,69,0.00,,,0.00,,Wunderground v.1.13,2013-03-06 04:51:00,
2013-03-05 21:00:00,48.8,45.1,29.78,ESE,112,1.0,6.0,87,0.06,,,-99.99,0,WeatherLink 5.7,2013-03-06 05:00:00,
2013-03-05 21:01:00,51.0,41.6,29.78,North,5,1.0,1.0,70,0.00,,,0.00,,Wunderground v.1.13,2013-03-06 05:01:00,
2013-03-05 21:06:00,50.8,42.1,29.78,NNE,18,1.0,1.0,72,0.00,,,0.00,,Wunderground v.1.13,2013-03-06 05:06:00,
2013-03-05 21:15:00,48.3,45.2,29.77,East,90,1.0,4.0,89,0.08,,,-99.99,0,WeatherLink 5.7,2013-03-06 05:15:00,
2013-03-05 21:16:00,50.4,42.8,29.77,ESE,102,1.0,1.0,75,0.00,,,0.01,,Wunderground v.1.13,2013-03-06 05:16:00,
2013-03-05 21:26:00,50.2,43.3,29.77,ESE,119,1.0,2.0,77,0.00,,,0.01,,Wunderground v.1.13,2013-03-06 05:26:00,
2013-03-05 21:30:00,48.2,45.4,29.76,East,90,1.0,5.0,90,0.09,,,-99.99,0,WeatherLink 5.7,2013-03-06 05:30:00,
2013-03-05 21:36:00,49.8,43.9,29.77,NE,50,1.0,2.0,80,0.00,,,0.02,,Wunderground v.1.13,2013-03-06 05:36:00,
2013-03-05 21:41:00,49.5,44.2,29.77,ESE,104,1.0,2.0,82,0.12,,,0.03,,Wunderground v.1.13,2013-03-06 05:41:00,
2013-03-05 21:45:00,48.3,45.8,29.76,East,90,1.0,4.0,91,0.07,,,-99.99,0,WeatherLink 5.7,2013-03-06 05:45:00,
2013-03-05 21:46:00,49.2,44.3,29.77,East,80,1.0,3.0,83,0.07,,,0.03,,Wunderground v.1.13,2013-03-06 05:46:00,
2013-03-05 21:56:00,48.9,44.6,29.77,ESE,118,1.0,1.0,85,0.09,,,0.05,,Wunderground v.1.13,2013-03-06 05:56:00,
2013-03-05 22:00:00,48.2,45.4,29.75,East,90,1.0,5.0,90,0.04,,,-99.99,0,WeatherLink 5.7,2013-03-06 06:00:00,
2013-03-05 22:01:00,48.6,44.9,29.78,East,80,1.0,1.0,87,0.22,,,0.06,,Wunderground v.1.13,2013-03-06 06:01:00,
2013-03-05 22:11:00,48.5,45.4,29.78,East,95,1.0,1.0,89,0.14,,,0.08,,Wunderground v.1.13,2013-03-06 06:11:00,
2013-03-05 22:15:00,48.3,44.6,29.74,East,90,2.0,7.0,87,0.02,,,-99.99,0,WeatherLink 5.7,2013-03-06 06:15:00,
2013-03-05 22:21:00,48.2,45.4,29.77,East,92,1.0,1.0,90,0.13,,,0.10,,Wunderground v.1.13,2013-03-06 06:21:00,
2013-03-05 22:30:00,48.5,44.2,29.74,East,90,2.0,11.0,85,0.01,,,-99.99,0,WeatherLink 5.7,2013-03-06 06:30:00,
2013-03-05 22:31:00,48.2,45.4,29.76,East,92,1.0,1.0,90,0.04,,,0.10,,Wunderground v.1.13,2013-03-06 06:31:00,
2013-03-05 22:36:00,48.3,45.8,29.76,East,96,1.0,1.0,91,0.00,,,0.10,,Wunderground v.1.13,2013-03-06 06:36:00,
2013-03-05 22:45:00,48.5,43.9,29.74,East,90,2.0,5.0,84,0.01,,,-99.99,0,WeatherLink 5.7,2013-03-06 06:45:00,
2013-03-05 22:46:00,48.3,45.8,29.76,ESE,107,1.0,4.0,91,0.00,,,0.10,,Wunderground v.1.13,2013-03-06 06:46:00,
2013-03-05 22:56:00,48.2,45.4,29.76,ESE,103,1.0,1.0,90,0.00,,,0.10,,Wunderground v.1.13,2013-03-06 06:56:00,
2013-03-05 23:00:00,48.8,43.9,29.74,East,90,2.0,12.0,83,0.01,,,-99.99,0,WeatherLink 5.7,2013-03-06 07:00:00,
2013-03-05 23:01:00,48.2,45.4,29.75,East,97,2.0,3.0,90,0.00,,,0.10,,Wunderground v.1.13,2013-03-06 07:01:00,
2013-03-05 23:11:00,48.3,44.9,29.75,ESE,107,2.0,2.0,88,0.00,,,0.10,,Wunderground v.1.13,2013-03-06 07:11:00,
2013-03-05 23:15:00,48.9,44.0,29.76,East,90,2.0,6.0,83,0.00,,,-99.99,0,WeatherLink 5.7,2013-03-06 07:15:00,
2013-03-05 23:21:00,48.3,44.3,29.74,East,94,2.0,2.0,86,0.00,,,0.11,,Wunderground v.1.13,2013-03-06 07:21:00,
2013-03-05 23:30:00,48.8,44.5,29.76,East,90,1.0,5.0,85,0.00,,,-99.99,0,WeatherLink 5.7,2013-03-06 07:30:00,
2013-03-05 23:31:00,48.5,44.2,29.74,East,94,2.0,2.0,85,0.00,,,0.11,,Wunderground v.1.13,2013-03-06 07:31:00,
2013-03-05 23:41:00,48.5,44.2,29.74,ESE,104,2.0,2.0,85,0.00,,,0.11,,Wunderground v.1.13,2013-03-06 07:41:00,
2013-03-05 23:45:00,48.6,44.6,29.76,East,90,1.0,6.0,86,0.00,,,-99.99,0,WeatherLink 5.7,2013-03-06 07:45:00,
2013-03-05 23:51:00,48.6,44.0,29.74,East,81,1.0,3.0,84,0.00,,,0.11,,Wunderground v.1.13,2013-03-06 07:51:00,